This is the latest recevied weather packets stored in our database for station/object NP4KB. If no packets are shown the sender has not sent any weather packets the latest 1 day(s).
| Time | Temp. | Humidity | Pressure | Rain* | Wind** | Luminosity | Snow |
|---|---|---|---|---|---|---|---|
| 1778000663 | - | - | - | 0 mm | 0.89 m/s, 150° | - | - |
| 1778000359 | - | - | - | 0 mm | 3.13 m/s, 101° | - | - |
| 1778000055 | - | - | - | 0 mm | 2.24 m/s, 172° | - | - |
| 1777999750 | - | - | - | 0 mm | 3.13 m/s, 181° | - | - |
| 1777999447 | - | - | - | 0 mm | 0.45 m/s, 150° | - | - |
| 1777999145 | - | - | - | 0 mm | 4.92 m/s, 119° | - | - |
| 1777998844 | - | - | - | 0 mm | 3.58 m/s, 157° | - | - |
| 1777998543 | - | - | - | 0 mm | 1.79 m/s, 123° | - | - |
| 1777998238 | - | - | - | 0 mm | 4.47 m/s, 191° | - | - |
| 1777997935 | - | - | - | 0 mm | 2.68 m/s, 90° | - | - |
| 1777997631 | - | - | - | 0 mm | 5.81 m/s, 126° | - | - |
| 1777997328 | - | - | - | 0 mm | 4.02 m/s, 122° | - | - |
| 1777997026 | - | - | - | 0 mm | 4.02 m/s, 141° | - | - |
| 1777996723 | - | - | - | 0 mm | 2.24 m/s, 162° | - | - |
| 1777996418 | - | - | - | 0 mm | 2.24 m/s, 115° | - | - |
| 1777996116 | - | - | - | 0 mm | 1.79 m/s, 110° | - | - |
| 1777995812 | - | - | - | 0 mm | 5.36 m/s, 168° | - | - |
| 1777995508 | - | - | - | 0 mm | 4.92 m/s, 105° | - | - |
| 1777995205 | - | - | - | 0 mm | 5.36 m/s, 182° | - | - |
| 1777994902 | - | - | - | 0 mm | 4.47 m/s, 131° | - | - |
| 1777994599 | - | - | - | 0 mm | 4.02 m/s, 157° | - | - |
| 1777994294 | - | - | - | 0 mm | 2.68 m/s, 120° | - | - |
| 1777993991 | - | - | - | 0 mm | 2.68 m/s, 127° | - | - |
| 1777993687 | - | - | - | 0 mm | 3.13 m/s, 110° | - | - |
| 1777993384 | - | - | - | 0 mm | 4.02 m/s, 120° | - | - |
* Rain latest hour (hover to see other rain measurements)
** Current wind speed in m/s (hover to see current wind gust speed)